Location: Peebles
(55.6412°N, 3.1714°W)
Time: 18:12:04
(UTC+01:00)

USA 238 DEB - Pass Details

Date: 26 January 2022
Orbit: 969 x 1243 km, 63.4° (Epoch: 04 May)

Event Time Altitude Azimuth Distance (km) Brightness Sun altitude
Rises 21:08:57 0° 297° (WNW) 3,840 7.6 -37.8°
Reaches altitude 10° 21:11:36 10° 302° (WNW) 2,922 6.7 -38.1°
Enters shadow 21:16:28 42° 333° (NNW) 1,544 4.7 -38.8°
